TimeEDT,TemperatureF,Dew PointF,Humidity,Sea Level PressureIn,VisibilityMPH,Wind Direction,Wind SpeedMPH,Gust SpeedMPH,PrecipitationIn,Events,Conditions,WindDirDegrees,DateUTC
12:43 AM,69.1,64.9,87,30.12,10.0,South,5.8,-,0.00,,Overcast,170,2013-09-19 04:43:00
12:54 AM,68.0,64.9,90,30.10,10.0,South,5.8,-,0.00,,Mostly Cloudy,170,2013-09-19 04:54:00
1:03 AM,68.0,64.9,90,30.12,10.0,South,6.9,-,N/A,,Scattered Clouds,170,2013-09-19 05:03:00
1:54 AM,66.9,64.0,90,30.09,10.0,South,6.9,-,N/A,,Clear,180,2013-09-19 05:54:00
2:54 AM,66.9,64.0,90,30.09,9.0,South,6.9,-,N/A,,Clear,170,2013-09-19 06:54:00
3:54 AM,66.9,64.0,90,30.09,9.0,South,6.9,-,N/A,,Clear,180,2013-09-19 07:54:00
4:54 AM,66.0,64.0,93,30.09,7.0,South,5.8,-,N/A,,Clear,180,2013-09-19 08:54:00
5:54 AM,64.9,63.0,93,30.09,6.0,South,6.9,-,N/A,,Mostly Cloudy,170,2013-09-19 09:54:00
6:54 AM,64.9,63.0,93,30.10,6.0,South,5.8,-,N/A,,Clear,180,2013-09-19 10:54:00
7:54 AM,66.0,63.0,90,30.11,6.0,South,8.1,-,N/A,,Scattered Clouds,180,2013-09-19 11:54:00
8:54 AM,69.1,64.9,87,30.12,9.0,SSW,9.2,-,N/A,,Mostly Cloudy,210,2013-09-19 12:54:00
9:54 AM,70.0,64.9,84,30.13,10.0,SW,11.5,-,N/A,,Overcast,220,2013-09-19 13:54:00
10:54 AM,72.0,64.9,78,30.14,10.0,WSW,6.9,-,N/A,,Overcast,240,2013-09-19 14:54:00
11:16 AM,71.1,64.9,81,30.18,9.0,NW,9.2,-,0.00,Rain,Light Rain,310,2013-09-19 15:16:00
11:45 AM,71.1,64.9,81,30.17,10.0,WSW,5.8,-,0.00,,Overcast,250,2013-09-19 15:45:00
11:54 AM,71.1,64.9,81,30.15,8.0,WSW,5.8,-,0.00,Rain,Light Rain,250,2013-09-19 15:54:00
12:54 PM,75.9,68.0,76,30.12,10.0,SW,6.9,-,0.00,Rain,Light Rain,230,2013-09-19 16:54:00
1:29 PM,75.9,66.9,74,30.13,10.0,SSW,9.2,-,0.00,,Mostly Cloudy,210,2013-09-19 17:29:00
1:54 PM,77.0,66.9,71,30.11,10.0,WSW,9.2,-,0.00,,Mostly Cloudy,250,2013-09-19 17:54:00
2:01 PM,77.0,66.9,71,30.12,10.0,West,10.4,-,N/A,,Scattered Clouds,260,2013-09-19 18:01:00
2:19 PM,77.0,66.9,71,30.12,10.0,West,8.1,-,N/A,,Mostly Cloudy,260,2013-09-19 18:19:00
2:31 PM,77.0,68.0,74,30.11,10.0,West,8.1,-,N/A,,Scattered Clouds,260,2013-09-19 18:31:00
2:54 PM,77.0,68.0,74,30.08,10.0,SSW,8.1,-,N/A,,Scattered Clouds,210,2013-09-19 18:54:00
3:54 PM,79.0,68.0,69,30.05,10.0,SSW,8.1,-,N/A,,Partly Cloudy,210,2013-09-19 19:54:00
4:54 PM,81.0,68.0,65,30.05,10.0,Variable,5.8,-,N/A,,Clear,0,2013-09-19 20:54:00
5:54 PM,80.1,68.0,67,30.04,10.0,SSW,5.8,-,N/A,,Partly Cloudy,210,2013-09-19 21:54:00
6:54 PM,79.0,69.1,72,30.03,10.0,South,4.6,-,N/A,,Partly Cloudy,190,2013-09-19 22:54:00
7:54 PM,77.0,68.0,74,30.03,10.0,SSE,3.5,-,N/A,,Clear,150,2013-09-19 23:54:00
8:54 PM,73.9,69.1,85,30.02,10.0,SE,5.8,-,N/A,,Clear,140,2013-09-20 00:54:00
9:54 PM,73.0,69.1,87,30.01,9.0,South,8.1,-,N/A,,Clear,170,2013-09-20 01:54:00
10:54 PM,72.0,68.0,87,30.02,10.0,SSW,5.8,-,N/A,,Clear,200,2013-09-20 02:54:00
11:54 PM,72.0,66.9,84,30.03,10.0,South,6.9,-,N/A,,Clear,190,2013-09-20 03:54:00